Location: Newark
(47.4000°N, 7.5833°E)
Time: 02:03:31
(UTC+00:00)

N. Korean satellite - Pass Details

Date: 03 February 2020
Orbit: 456 x 505 km, 97.2° (Epoch: 25 February)

Event Time Altitude Azimuth Distance (km) Brightness Sun altitude
Rises 04:59:02 0° 18° (NNE) 2,572 10.4 -19.6°
Reaches altitude 10° 05:01:11 10° 25° (NNE) 1,694 9.6 -19.3°
Maximum altitude 05:04:41 43° 99° (E) 703 7.8 -18.7°
Drops below altitude 10° 05:08:12 10° 172° (S) 1,701 9.5 -18.1°
Sets 05:10:21 0° 179° (S) 2,585 10.3 -17.7°
